Location: Biltmore Gardens
(41.6070°N, 83.4666°W)
Time: 15:08:48
(UTC+00:00)

BREEZE M DEB (TANK) - Pass Details

Date: 14 July 2020
Orbit: 326 x 16146 km, 49.4° (Epoch: 12 August)

Event Time Altitude Azimuth Distance (km) Brightness Sun altitude
Rises 02:26:45 0° 220° (SW) 2,571 5.7 -12.6°
Reaches altitude 10° 02:28:07 10° 216° (SW) 1,965 5.0 -12.8°
Maximum altitude 02:32:02 62° 135° (SE) 1,209 3.7 -13.3°
Drops below altitude 10° 02:46:36 10° 59° (ENE) 6,851 7.7 -15.1°
Sets 02:57:00 0° 58° (ENE) 10,414 8.7 -16.4°
